FW6176 Weather Reports


Display with metric or nautical units.
time (UTC)temp
F
wind
direction
speed
MPH
gust
MPH
rain 1hr
in
rain 24hr
in
rain mn
in
humidity
%
barometer
mb
20260905024511 87 288 0.0 0.0 0.00 0.00 0.00 61 1012.4
20260905023010 87 288 0.0 1.0 0.00 0.00 0.00 61 1012.2
20260905021517 88 288 0.0 0.0 0.00 0.00 0.00 60 1012.0
20260905020013 89 288 0.0 0.0 0.00 0.00 0.00 58 1011.9
20260905014508 89 288 0.0 0.0 0.00 0.00 0.00 58 1011.7
20260905013007 89 288 0.0 0.0 0.00 0.00 0.00 57 1011.5
20260905011506 89 288 0.0 0.0 0.00 0.00 0.00 55 1011.5
20260905010006 90 288 0.0 0.0 0.00 0.00 0.00 53 1011.4
20260905004506 91 288 0.0 0.0 0.00 0.00 0.00 51 1011.3
20260905003008 93 288 0.0 0.0 0.00 0.00 0.00 49 1011.3
20260905001505 94 288 0.0 0.0 0.00 0.00 0.00 47 1011.3
20260905000004 96 288 0.0 0.0 0.00 0.00 0.00 45 1011.3
20260904234505 97 288 0.0 1.0 0.00 0.00 0.00 42 1011.2
20260904233004 99 264 0.0 1.0 0.00 0.00 0.00 40 1011.1
20260904231503 98 291 0.0 3.0 0.00 0.00 0.00 41 1011.1
20260904230002 98 248 0.0 1.0 0.00 0.00 0.00 42 1011.1
20260904224502 98 243 0.0 1.0 0.00 0.00 0.00 42 1011.0
20260904223000 99 153 0.0 4.0 0.00 0.00 0.00 40 1011.1
20260904221503 100 288 0.0 3.0 0.00 0.00 0.00 38 1011.1
20260904220110 101 300 0.0 3.0 0.00 0.00 0.00 36 1011.3
20260904214557 102 143 0.0 3.0 0.00 0.00 0.00 36 1011.5
20260904213055 101 120 0.0 1.0 0.00 0.00 0.00 37 1011.6
20260904211556 101 28 0.0 1.0 0.00 0.00 0.00 39 1011.7
20260904210057 100 314 0.0 1.0 0.00 0.00 0.00 41 1011.9
20260904204549 99 235 0.0 1.0 0.00 0.00 0.00 42 1012.0
20260904203048 99 285 0.0 3.0 0.00 0.00 0.00 44 1012.3
20260904201551 101 278 0.0 1.0 0.00 0.00 0.00 41 1012.4
20260904200107 100 123 0.0 2.0 0.00 0.00 0.00 42 1012.7
20260904194622 99 311 0.0 1.0 0.00 0.00 0.00 42 1012.9
20260904193044 100 210 0.0 4.0 0.00 0.00 0.00 45 1013.0
20260904191542 100 341 2.0 5.0 0.00 0.00 0.00 42 1013.1
20260904190046 99 307 1.0 7.0 0.00 0.00 0.00 44 1013.2
20260904184543 98 345 1.0 5.0 0.00 0.00 0.00 46 1013.4
20260904183042 98 8 0.0 3.0 0.00 0.00 0.00 45 1013.4
20260904181544 98 349 1.0 5.0 0.00 0.00 0.00 47 1013.5
20260904180040 98 18 1.0 6.0 0.00 0.00 0.00 45 1013.6
20260904174538 99 146 0.0 4.0 0.00 0.00 0.00 47 1013.6
20260904173057 99 338 1.0 7.0 0.00 0.00 0.00 47 1014.0
20260904171540 98 96 0.0 4.0 0.00 0.00 0.00 50 1014.0
20260904170031 97 328 1.0 4.0 0.00 0.00 0.00 49 1014.2
20260904164530 97 264 0.0 3.0 0.00 0.00 0.00 52 1014.4
20260904163028 97 311 1.0 5.0 0.00 0.00 0.00 51 1014.4
20260904161528 96 82 0.0 2.0 0.00 0.00 0.00 52 1014.4
20260904160022 96 267 0.0 2.0 0.00 0.00 0.00 52 1014.5
20260904154521 94 252 0.0 5.0 0.00 0.00 0.00 52 1014.4
20260904153024 95 306 0.0 3.0 0.00 0.00 0.00 53 1014.4
20260904151533 95 297 0.0 4.0 0.00 0.00 0.00 52 1014.3
20260904150014 94 241 0.0 5.0 0.00 0.00 0.00 54 1014.1
20260904144511 94 248 0.0 4.0 0.00 0.00 0.00 54 1014.1
20260904143008 93 252 0.0 4.0 0.00 0.00 0.00 56 1014.0
20260904141505 92 232 0.0 1.0 0.00 0.00 0.00 57 1014.0
20260904140109 91 262 0.0 3.0 0.00 0.00 0.00 58 1014.0
20260904134609 90 262 0.0 4.0 0.00 0.00 0.00 60 1014.1
20260904133110 88 252 0.0 2.0 0.00 0.00 0.00 61 1014.0
20260904131611 86 263 0.0 2.0 0.00 0.00 0.00 64 1014.1
20260904130055 85 260 0.0 1.0 0.00 0.00 0.00 65 1014.0
20260904124555 84 131 0.0 1.0 0.00 0.00 0.00 66 1014.0
20260904123153 84 119 0.0 1.0 0.00 0.00 0.00 66 1013.9
20260904121553 82 90 0.0 0.0 0.00 0.00 0.00 68 1013.9
20260904120051 81 90 0.0 0.0 0.00 0.00 0.00 70 1013.7
20260904114549 81 90 0.0 0.0 0.00 0.00 0.00 69 1013.6
20260904113046 82 90 0.0 0.0 0.00 0.00 0.00 68 1013.5
20260904111544 82 90 0.0 3.0 0.00 0.00 0.00 68 1013.4
20260904110042 82 127 0.0 0.0 0.00 0.00 0.00 68 1013.2
20260904104541 82 127 0.0 0.0 0.00 0.00 0.00 68 1013.1
20260904103048 82 127 0.0 0.0 0.00 0.00 0.00 67 1013.0
20260904101536 83 127 0.0 2.0 0.00 0.00 0.00 66 1012.9
20260904100037 83 99 0.0 1.0 0.00 0.00 0.00 66 1012.8
20260904094534 83 119 0.0 0.0 0.00 0.00 0.00 66 1012.8
20260904093033 84 145 0.0 2.0 0.00 0.00 0.00 65 1012.7
20260904091538 83 136 0.0 2.0 0.00 0.00 0.00 66 1012.6
20260904090039 84 100 0.0 1.0 0.00 0.00 0.00 66 1012.5
20260904084530 84 133 0.0 1.0 0.00 0.00 0.00 66 1012.5
20260904083029 84 142 0.0 2.0 0.00 0.00 0.00 65 1012.4
20260904081529 84 167 0.0 1.0 0.00 0.00 0.00 65 1012.3
20260904080036 85 143 0.0 1.0 0.00 0.00 0.00 65 1012.3
20260904074530 85 115 0.0 2.0 0.00 0.00 0.00 64 1012.4
20260904073034 85 141 0.0 0.0 0.00 0.00 0.00 64 1012.4
20260904071522 86 97 0.0 0.0 0.00 0.00 0.00 63 1012.3
20260904070021 86 90 0.0 2.0 0.00 0.00 0.00 63 1012.3
20260904064518 86 131 0.0 1.0 0.00 0.00 0.00 62 1012.4
20260904063018 87 148 0.0 1.0 0.00 0.00 0.00 62 1012.4
20260904061522 87 98 0.0 4.0 0.00 0.00 0.00 61 1012.4
20260904060014 87 31 0.0 3.0 0.00 0.00 0.00 61 1012.4
20260904054514 88 163 0.0 3.0 0.00 0.00 0.00 60 1012.3
20260904053017 88 127 0.0 2.0 0.00 0.00 0.00 61 1012.2
20260904051525 89 126 0.0 5.0 0.00 0.00 0.00 60 1012.4
20260904050008 89 115 0.0 3.0 0.00 0.00 0.00 59 1012.3
20260904044508 89 119 0.0 6.0 0.00 0.00 0.00 59 1012.4
20260904043009 89 160 0.0 3.0 0.00 0.00 0.00 58 1012.3
20260904041511 90 146 0.0 1.0 0.00 0.00 0.00 58 1012.3
20260904040006 90 121 0.0 2.0 0.00 0.00 0.00 58 1012.3
20260904034505 90 150 0.0 2.0 0.00 0.00 0.00 58 1012.5
20260904033003 90 159 0.0 2.0 0.00 0.00 0.00 57 1012.4
20260904031503 90 114 0.0 3.0 0.00 0.00 0.00 57 1012.4
20260904030002 90 84 0.0 5.0 0.00 0.00 0.00 58 1012.3